Overview Statistics Trail Chart Weather Telemetry Raw packets
 

This is the latest recevied weather packets stored in our database for station/object KN6CRX-10. If no packets are shown the sender has not sent any weather packets the latest 10 day(s).

<< 18 19 20 21 22 23 24 >>
Time Temp. Humidity Pressure Rain* Wind** Luminosity Snow
1788291988 23.89° C 44% 1018.7 hPa 0 mm - 777 W/m² -
1788291683 23.89° C 44% 1018.9 hPa 0 mm - 461 W/m² -
1788291379 23.33° C 46% 1019 hPa 0 mm - 1088 W/m² -
1788291073 23.33° C 46% 1019.2 hPa 0 mm - 339 W/m² -
1788290768 22.78° C 48% 1019.2 hPa 0 mm - 329 W/m² -
1788290486 22.78° C 46% 1019 hPa 0 mm - 376 W/m² -
1788290159 22.78° C 44% 1019.4 hPa 0 mm - 344 W/m² -
1788289855 22.78° C 46% 1019.2 hPa 0 mm - 306 W/m² -
1788289550 22.78° C 46% 1019.5 hPa 0 mm - 282 W/m² -
1788289249 22.78° C 46% 1019.4 hPa 0 mm - 273 W/m² -
1788288948 22.78° C 46% 1019.5 hPa 0 mm - 278 W/m² -
1788288647 22.78° C 46% 1019.4 hPa 0 mm - 232 W/m² -
1788288343 22.78° C 44% 1019.5 hPa 0 mm - 217 W/m² -
1788288038 22.78° C 45% 1019.4 hPa 0 mm - 242 W/m² -
1788287738 22.78° C 46% 1019.5 hPa 0 mm - 346 W/m² -
1788287433 23.33° C 45% 1019.5 hPa 0 mm - 212 W/m² -
1788287130 22.78° C 43% 1019.9 hPa 0 mm - 398 W/m² -
1788286830 23.33° C 43% 1020 hPa 0 mm - 572 W/m² -
1788286548 22.78° C 46% 1020 hPa 0 mm - 366 W/m² -
1788286229 22.78° C 49% 1020.1 hPa 0 mm - 801 W/m² -
1788285928 23.33° C 47% 1019.9 hPa 0 mm - 541 W/m² -
1788285623 23.89° C 45% 1020 hPa 0 mm - 844 W/m² -
1788285317 23.33° C 49% 1020 hPa 0 mm - 808 W/m² -
1788285016 22.78° C 48% 1020.1 hPa 0 mm - 770 W/m² -
1788284713 22.78° C 48% 1020.1 hPa 0 mm - 754 W/m² -

* Rain latest hour (hover to see other rain measurements)
** Current wind speed in m/s (hover to see current wind gust speed)